Terminal Aerodrome Forecast
Issued by NWS Cleveland, OH

Home | Current Version | Previous Version | Graphics & Text | Print | Product List | Glossary On
Versions: 1 2 3 4 5 6 7 8 9 10 11 12 13 14 15 16 17 18 19 20 21 22 23 24 25 26 27
000
FTUS41 KCLE 120500
TAFCLE
TAF
KCLE 120536Z 1206/1312 36007KT 6SM BR OVC025
     FM121600 04010KT P6SM OVC025
     FM122200 03010KT P6SM SCT250
     FM130100 03007KT P6SM BKN050 BKN250
     FM130500 05006KT P6SM OVC040=

USA.gov is the U.S. government's official web portal to all federal, state and local government web resources and services.